When you browse on this site, cookies collect data to enhance your experience and personalize the content and advertising you see.
Visit our Privacy Policy to learn more. By continuing to use the site, you agree to this use of cookies and data.
  • In Romania
  • List of Countries
  • For 7 days
  • Water Temperature
  • Weather Map
  • Weather Widgets
  • user-avatar
    Login

    Hourly Weather Lincoln

    Today, 6 December, Friday

    Time Temperature Precipitation Wind Pressure Humidity
    00:00 +10°C° 0 mm 9 mps 749 mmHg 84%
    01:00 +10°C° 0 mm 8 mps 748 mmHg 85%
    02:00 +10°C° 0 mm 7 mps 748 mmHg 87%
    03:00 +10°C° 0 mm 6 mps 747 mmHg 89%
    04:00 +10°C° 0 mm 6 mps 747 mmHg 89%
    05:00 +10°C° 0 mm 6 mps 747 mmHg 89%
    06:00 +10°C° 0 mm 6 mps 747 mmHg 90%
    07:00 +10°C° 0.1 mm 7 mps 746 mmHg 90%
    08:00 +10°C° 0.1 mm 7 mps 746 mmHg 91%
    09:00 +10°C° 0.1 mm 7 mps 745 mmHg 91%
    10:00 +11°C° 0.1 mm 7 mps 744 mmHg 86%
    11:00 +11°C° 0.1 mm 7 mps 744 mmHg 81%
    12:00 +12°C° 0.1 mm 7 mps 744 mmHg 76%
    13:00 +11°C° 0.3 mm 6 mps 743 mmHg 78%
    14:00 +10°C° 0.3 mm 6 mps 743 mmHg 80%
    15:00 +9°C° 0.3 mm 5 mps 743 mmHg 83%
    16:00 +9°C° 0.8 mm 5 mps 743 mmHg 82%
    17:00 +8°C° 0.8 mm 6 mps 744 mmHg 81%
    18:00 +8°C° 0.8 mm 6 mps 745 mmHg 80%
    19:00 +8°C° 0 mm 6 mps 746 mmHg 81%
    20:00 +7°C° 0 mm 6 mps 746 mmHg 82%
    21:00 +7°C° 0 mm 5 mps 747 mmHg 83%
    22:00 +7°C° 0 mm 5 mps 748 mmHg 84%
    23:00 +7°C° 0 mm 5 mps 748 mmHg 84%

    Tomorrow, 7 December, Saturday

    Time Temperature Precipitation Wind Pressure Humidity
    00:00 +7°C° 0 mm 5 mps 749 mmHg 85%
    01:00 +7°C° 0 mm 5 mps 749 mmHg 85%
    02:00 +7°C° 0 mm 5 mps 750 mmHg 84%
    03:00 +7°C° 0 mm 5 mps 750 mmHg 83%
    04:00 +7°C° 0 mm 5 mps 750 mmHg 84%
    05:00 +6°C° 0 mm 5 mps 751 mmHg 85%
    06:00 +6°C° 0 mm 5 mps 751 mmHg 86%
    07:00 +6°C° 0 mm 5 mps 752 mmHg 87%
    08:00 +6°C° 0 mm 4 mps 752 mmHg 88%
    09:00 +6°C° 0 mm 4 mps 752 mmHg 88%
    10:00 +7°C° 0 mm 5 mps 752 mmHg 85%
    11:00 +7°C° 0 mm 5 mps 753 mmHg 82%
    12:00 +8°C° 0 mm 5 mps 753 mmHg 79%
    13:00 +8°C° 0 mm 5 mps 752 mmHg 81%
    14:00 +7°C° 0 mm 4 mps 752 mmHg 82%
    15:00 +7°C° 0 mm 4 mps 752 mmHg 84%
    16:00 +7°C° 0 mm 4 mps 751 mmHg 86%
    17:00 +7°C° 0 mm 5 mps 751 mmHg 88%
    18:00 +6°C° 0 mm 5 mps 751 mmHg 89%
    19:00 +7°C° 0 mm 6 mps 750 mmHg 90%
    20:00 +6°C° 0 mm 7 mps 749 mmHg 90%
    21:00 +6°C° 0 mm 7 mps 748 mmHg 90%
    22:00 +6°C° 0.4 mm 8 mps 746 mmHg 89%
    23:00 +6°C° 0.4 mm 9 mps 745 mmHg 88%

    Day after tomorrow, 8 December, Sunday

    Time Temperature Precipitation Wind Pressure Humidity
    00:00 +7°C° 0.4 mm 10 mps 744 mmHg 87%
    01:00 +8°C° 0.9 mm 10 mps 742 mmHg 87%
    02:00 +9°C° 0.9 mm 10 mps 741 mmHg 87%
    03:00 +11°C° 0.9 mm 10 mps 740 mmHg 87%
    04:00 +8°C° 0.1 mm 9 mps 740 mmHg 83%
    05:00 +7°C° 0.1 mm 8 mps 741 mmHg 79%
    06:00 +6°C° 0.1 mm 7 mps 741 mmHg 74%
    07:00 +6°C° 0 mm 7 mps 742 mmHg 75%
    08:00 +5°C° 0 mm 7 mps 742 mmHg 75%
    09:00 +5°C° 0 mm 7 mps 742 mmHg 76%
    10:00 +5°C° 0 mm 8 mps 742 mmHg 73%
    11:00 +6°C° 0 mm 8 mps 742 mmHg 69%
    12:00 +6°C° 0 mm 8 mps 742 mmHg 66%
    13:00 +6°C° 0.2 mm 8 mps 741 mmHg 68%
    14:00 +5°C° 0.2 mm 8 mps 741 mmHg 69%
    15:00 +5°C° 0.2 mm 7 mps 740 mmHg 71%
    16:00 +4°C° 0 mm 7 mps 740 mmHg 72%
    17:00 +4°C° 0 mm 7 mps 739 mmHg 73%
    18:00 +3°C° 0 mm 7 mps 739 mmHg 74%
    19:00 +4°C° 0.2 mm 8 mps 738 mmHg 76%
    20:00 +3°C° 0.2 mm 9 mps 737 mmHg 79%
    21:00 +3°C° 0.2 mm 10 mps 736 mmHg 81%
    22:00 +3°C° 0.1 mm 10 mps 735 mmHg 82%
    23:00 +3°C° 0.1 mm 10 mps 733 mmHg 83%

    9 December, Monday

    Time Temperature Precipitation Wind Pressure Humidity
    00:00 +3°C° 0.1 mm 9 mps 732 mmHg 84%
    01:00 +3°C° 0.7 mm 10 mps 732 mmHg 78%
    02:00 +5°C° 0.7 mm 10 mps 733 mmHg 72%
    03:00 +4°C° 0.7 mm 11 mps 733 mmHg 66%
    04:00 +5°C° 0 mm 10 mps 734 mmHg 71%
    05:00 +3°C° 0 mm 9 mps 734 mmHg 77%
    06:00 +2°C° 0 mm 9 mps 735 mmHg 82%
    07:00 +2°C° 0.4 mm 8 mps 736 mmHg 82%
    08:00 +4°C° 0.4 mm 8 mps 737 mmHg 82%
    09:00 +4°C° 0.4 mm 8 mps 738 mmHg 82%
    10:00 +3°C° 0 mm 9 mps 740 mmHg 78%
    11:00 +5°C° 0 mm 10 mps 743 mmHg 74%
    12:00 +5°C° 0 mm 10 mps 745 mmHg 69%
    13:00 +5°C° 0 mm 10 mps 747 mmHg 68%
    14:00 +3°C° 0 mm 9 mps 749 mmHg 67%
    15:00 +2°C° 0 mm 8 mps 751 mmHg 66%
    16:00 +3°C° 0 mm 7 mps 752 mmHg 68%
    17:00 +2°C° 0 mm 7 mps 754 mmHg 70%
    18:00 +2°C° 0 mm 6 mps 755 mmHg 72%
    19:00 +1°C° 0 mm 6 mps 756 mmHg 73%
    20:00 +1°C° 0 mm 5 mps 757 mmHg 74%
    21:00 0°C° 0 mm 4 mps 758 mmHg 75%
    22:00 0°C° 0 mm 4 mps 759 mmHg 76%
    23:00 +1°C° 0 mm 3 mps 759 mmHg 76%

    10 December, Tuesday

    Time Temperature Precipitation Wind Pressure Humidity
    00:00 0°C° 0 mm 3 mps 759 mmHg 77%
    01:00 0°C° 0 mm 3 mps 760 mmHg 77%
    02:00 +1°C° 0 mm 2 mps 760 mmHg 76%
    03:00 +1°C° 0 mm 2 mps 760 mmHg 75%
    04:00 +1°C° 0 mm 2 mps 759 mmHg 76%
    05:00 0°C° 0 mm 3 mps 759 mmHg 77%
    06:00 0°C° 0 mm 3 mps 758 mmHg 77%
    07:00 0°C° 0 mm 4 mps 757 mmHg 76%
    08:00 -1°C° 0 mm 6 mps 756 mmHg 75%
    09:00 0°C° 0 mm 7 mps 756 mmHg 74%
    10:00 +1°C° 0.3 mm 8 mps 754 mmHg 78%
    11:00 +1°C° 0.3 mm 8 mps 752 mmHg 81%
    12:00 +2°C° 0.3 mm 9 mps 751 mmHg 85%
    13:00 +3°C° 1 mm 10 mps 749 mmHg 86%
    14:00 +4°C° 1 mm 11 mps 747 mmHg 86%
    15:00 +5°C° 1 mm 12 mps 744 mmHg 87%
    16:00 +7°C° 0.9 mm 11 mps 744 mmHg 87%
    17:00 +7°C° 0.9 mm 11 mps 743 mmHg 87%
    18:00 +8°C° 0.9 mm 10 mps 742 mmHg 87%
    19:00 +7°C° 0.4 mm 9 mps 743 mmHg 82%
    20:00 +5°C° 0.4 mm 8 mps 744 mmHg 77%
    21:00 +4°C° 0.4 mm 7 mps 745 mmHg 73%
    22:00 +3°C° 0 mm 7 mps 745 mmHg 73%
    23:00 +3°C° 0 mm 7 mps 746 mmHg 74%

    11 December, Wednesday

    Time Temperature Precipitation Wind Pressure Humidity
    00:00 +3°C° 0 mm 7 mps 746 mmHg 74%
    01:00 +2°C° 0 mm 7 mps 746 mmHg 75%
    02:00 +2°C° 0 mm 7 mps 746 mmHg 76%
    03:00 +2°C° 0 mm 7 mps 746 mmHg 77%
    04:00 +2°C° 0 mm 6 mps 746 mmHg 77%
    05:00 +2°C° 0 mm 6 mps 746 mmHg 77%
    06:00 +1°C° 0 mm 6 mps 745 mmHg 77%
    07:00 +2°C° 0.1 mm 7 mps 744 mmHg 79%
    08:00 +1°C° 0.1 mm 8 mps 744 mmHg 82%
    09:00 +1°C° 0.1 mm 9 mps 743 mmHg 84%
    10:00 +1°C° 0.5 mm 8 mps 742 mmHg 85%
    11:00 +1°C° 0.5 mm 8 mps 741 mmHg 86%
    12:00 +2°C° 0.5 mm 7 mps 740 mmHg 87%
    13:00 +2°C° 0.5 mm 7 mps 740 mmHg 82%
    14:00 +2°C° 0.5 mm 7 mps 740 mmHg 77%
    15:00 +2°C° 0.5 mm 7 mps 739 mmHg 72%
    16:00 +2°C° 0 mm 7 mps 739 mmHg 73%
    17:00 0°C° 0 mm 7 mps 739 mmHg 74%
    18:00 -1°C° 0 mm 6 mps 739 mmHg 75%
    19:00 -1°C° 0 mm 6 mps 739 mmHg 75%
    20:00 -1°C° 0 mm 6 mps 738 mmHg 75%
    21:00 -1°C° 0 mm 6 mps 738 mmHg 76%
    22:00 -1°C° 0 mm 6 mps 738 mmHg 76%
    23:00 -1°C° 0 mm 6 mps 737 mmHg 76%
    Show more